Wetterdaten: Samstag, 30.06.2012
Datum Zeit Temperatur Luftfeuchte Regen Wind Richtung Richtung Taupunkt Windchill Windben
30.06.2012 00:00 18,0 C 80 % 0,0 l/m 0,2 km/h (0 Bft) N-NO 22 14,5 C 18,0 C 0,0 km/h (0 Bft)
30.06.2012 00:05 18,0 C 81 % 0,0 l/m 0,2 km/h (0 Bft) N-NW 337 14,7 C 18,0 C 0,0 km/h (0 Bft)
30.06.2012 00:10 17,8 C 82 % 0,0 l/m 0,0 km/h (0 Bft) NO 45 14,7 C 17,6 C 0,0 km/h (0 Bft)
30.06.2012 00:15 17,9 C 83 % 0,0 l/m 0,2 km/h (0 Bft) N-NW 337 15,0 C 17,6 C 2,4 km/h (1 Bft)
30.06.2012 00:20 17,9 C 83 % 0,0 l/m 0,5 km/h (0 Bft) O-NO 67 15,0 C 17,6 C 0,0 km/h (0 Bft)
30.06.2012 00:25 17,7 C 82 % 0,0 l/m 0,5 km/h (0 Bft) S 180 14,6 C 17,6 C 0,0 km/h (0 Bft)
30.06.2012 00:30 17,6 C 82 % 0,0 l/m 0,0 km/h (0 Bft) S-SO 157 14,5 C 17,3 C 0,0 km/h (0 Bft)
30.06.2012 00:35 17,9 C 82 % 0,0 l/m 0,0 km/h (0 Bft) N-NO 22 14,8 C 17,4 C 0,0 km/h (0 Bft)
30.06.2012 00:40 18,8 C 81 % 0,0 l/m 0,5 km/h (0 Bft) N-NW 337 15,5 C 17,7 C 0,0 km/h (0 Bft)
30.06.2012 00:45 18,8 C 80 % 0,0 l/m 0,5 km/h (0 Bft) N-NO 22 15,3 C 17,8 C 0,0 km/h (0 Bft)
30.06.2012 00:50 18,8 C 79 % 0,0 l/m 0,2 km/h (0 Bft) N-NO 22 15,1 C 18,3 C 3,4 km/h (1 Bft)
30.06.2012 00:55 18,7 C 79 % 0,0 l/m 0,3 km/h (0 Bft) O 90 15,0 C 18,5 C 0,0 km/h (0 Bft)
30.06.2012 01:00 18,7 C 79 % 0,0 l/m 0,3 km/h (0 Bft) N-NO 22 15,0 C 18,5 C 0,0 km/h (0 Bft)
30.06.2012 01:05 18,7 C 79 % 0,0 l/m 0,3 km/h (0 Bft) N 360 15,0 C 18,5 C 0,0 km/h (0 Bft)
30.06.2012 01:10 18,8 C 78 % 0,0 l/m 0,5 km/h (0 Bft) NO 45 14,9 C 18,6 C 1,8 km/h (1 Bft)
30.06.2012 01:15 18,8 C 78 % 0,0 l/m 1,1 km/h (1 Bft) N-NO 22 14,9 C 18,6 C 3,1 km/h (1 Bft)
30.06.2012 01:20 18,9 C 77 % 0,0 l/m 1,0 km/h (0 Bft) NO 45 14,8 C 18,6 C 4,7 km/h (1 Bft)
30.06.2012 01:25 18,9 C 77 % 0,0 l/m 1,0 km/h (0 Bft) NO 45 14,8 C 18,6 C 2,7 km/h (1 Bft)
30.06.2012 01:30 18,8 C 78 % 0,0 l/m 1,3 km/h (1 Bft) O-SO 112 14,9 C 18,6 C 2,7 km/h (1 Bft)
30.06.2012 01:35 18,7 C 78 % 0,0 l/m 1,1 km/h (1 Bft) NO 45 14,8 C 18,6 C 2,9 km/h (1 Bft)
30.06.2012 01:40 18,5 C 78 % 0,0 l/m 0,6 km/h (0 Bft) NO 45 14,6 C 18,4 C 1,6 km/h (1 Bft)
30.06.2012 01:45 18,4 C 78 % 0,0 l/m 0,6 km/h (0 Bft) NO 45 14,5 C 18,4 C 0,0 km/h (0 Bft)
30.06.2012 01:50 18,3 C 79 % 0,0 l/m 1,3 km/h (1 Bft) W 270 14,6 C 18,3 C 2,7 km/h (1 Bft)
30.06.2012 01:55 18,5 C 79 % 0,0 l/m 2,1 km/h (1 Bft) N 360 14,8 C 18,4 C 3,4 km/h (1 Bft)
30.06.2012 02:00 18,5 C 79 % 0,0 l/m 1,9 km/h (1 Bft) N-NW 337 14,8 C 18,5 C 5,0 km/h (1 Bft)
30.06.2012 02:05 18,7 C 79 % 0,0 l/m 1,8 km/h (1 Bft) N 360 15,0 C 18,5 C 4,5 km/h (1 Bft)
30.06.2012 02:10 18,4 C 79 % 0,0 l/m 1,3 km/h (1 Bft) N 360 14,7 C 18,6 C 0,0 km/h (0 Bft)
30.06.2012 02:15 18,2 C 78 % 0,0 l/m 1,1 km/h (1 Bft) N 360 14,3 C 18,4 C 1,9 km/h (1 Bft)
30.06.2012 02:20 18,1 C 78 % 0,0 l/m 0,6 km/h (0 Bft) S 180 14,2 C 18,0 C 0,0 km/h (0 Bft)
30.06.2012 02:25 17,8 C 79 % 0,0 l/m 0,6 km/h (0 Bft) N 360 14,1 C 18,0 C 0,0 km/h (0 Bft)
30.06.2012 02:30 17,6 C 79 % 0,0 l/m 0,2 km/h (0 Bft) S 180 13,9 C 17,7 C 0,0 km/h (0 Bft)
30.06.2012 02:35 17,6 C 79 % 0,0 l/m 0,5 km/h (0 Bft) SO 135 13,9 C 17,6 C 2,4 km/h (1 Bft)
30.06.2012 02:40 17,6 C 80 % 0,0 l/m 0,6 km/h (0 Bft) W 270 14,1 C 17,6 C 0,0 km/h (0 Bft)
30.06.2012 02:45 17,4 C 80 % 0,0 l/m 0,5 km/h (0 Bft) N-NO 22 13,9 C 17,6 C 0,0 km/h (0 Bft)
30.06.2012 02:50 17,4 C 80 % 0,0 l/m 0,0 km/h (0 Bft) N 360 13,9 C 17,5 C 0,0 km/h (0 Bft)
30.06.2012 02:55 17,2 C 80 % 0,0 l/m 0,0 km/h (0 Bft) N-NO 22 13,7 C 17,3 C 0,0 km/h (0 Bft)
30.06.2012 03:00 17,2 C 80 % 0,0 l/m 0,0 km/h (0 Bft) S-SW 202 13,7 C 17,2 C 0,0 km/h (0 Bft)
30.06.2012 03:05 17,2 C 80 % 0,0 l/m 0,0 km/h (0 Bft) W-SW 247 13,7 C 17,2 C 0,0 km/h (0 Bft)
30.06.2012 03:10 17,0 C 82 % 0,0 l/m 0,0 km/h (0 Bft) S 180 13,9 C 16,9 C 0,0 km/h (0 Bft)
30.06.2012 03:15 17,0 C 82 % 0,0 l/m 0,0 km/h (0 Bft) S-SW 202 13,9 C 16,7 C 0,0 km/h (0 Bft)
30.06.2012 03:20 17,0 C 81 % 0,0 l/m 0,0 km/h (0 Bft) N-NO 22 13,7 C 16,6 C 0,0 km/h (0 Bft)
30.06.2012 03:25 17,1 C 81 % 0,0 l/m 0,2 km/h (0 Bft) N 360 13,8 C 16,7 C 0,0 km/h (0 Bft)
30.06.2012 03:30 17,1 C 81 % 0,0 l/m 0,3 km/h (0 Bft) N-NO 22 13,8 C 16,7 C 0,0 km/h (0 Bft)
30.06.2012 03:35 17,4 C 82 % 0,0 l/m 0,8 km/h (0 Bft) NO 45 14,3 C 16,7 C 2,4 km/h (1 Bft)
30.06.2012 03:40 18,0 C 81 % 0,0 l/m 0,6 km/h (0 Bft) N-NO 22 14,7 C 17,1 C 0,0 km/h (0 Bft)
30.06.2012 03:45 18,0 C 80 % 0,0 l/m 0,6 km/h (0 Bft) N 360 14,5 C 17,3 C 2,4 km/h (1 Bft)
30.06.2012 03:50 18,0 C 80 % 0,0 l/m 1,1 km/h (1 Bft) S-SO 157 14,5 C 17,6 C 3,7 km/h (1 Bft)
30.06.2012 03:55 17,8 C 80 % 0,0 l/m 0,8 km/h (0 Bft) SO 135 14,3 C 17,7 C 2,3 km/h (1 Bft)
30.06.2012 04:00 17,8 C 80 % 0,0 l/m 0,8 km/h (0 Bft) N 360 14,3 C 17,7 C 0,0 km/h (0 Bft)
30.06.2012 04:05 17,8 C 80 % 0,0 l/m 0,5 km/h (0 Bft) N 360 14,3 C 17,6 C 0,0 km/h (0 Bft)
30.06.2012 04:10 18,3 C 79 % 0,0 l/m 0,5 km/h (0 Bft) N-NO 22 14,6 C 17,8 C 0,0 km/h (0 Bft)
30.06.2012 04:15 18,3 C 78 % 0,0 l/m 0,8 km/h (0 Bft) N-NW 337 14,4 C 17,8 C 0,0 km/h (0 Bft)
30.06.2012 04:20 18,4 C 78 % 0,0 l/m 1,1 km/h (1 Bft) O-SO 112 14,5 C 18,1 C 4,2 km/h (1 Bft)
30.06.2012 04:25 18,6 C 77 % 0,0 l/m 1,6 km/h (1 Bft) O-SO 112 14,5 C 18,4 C 7,7 km/h (2 Bft)
30.06.2012 04:30 18,9 C 76 % 0,0 l/m 1,9 km/h (1 Bft) NO 45 14,6 C 18,7 C 3,2 km/h (1 Bft)
30.06.2012 04:35 18,7 C 77 % 0,0 l/m 1,6 km/h (1 Bft) NO 45 14,6 C 18,6 C 2,6 km/h (1 Bft)
30.06.2012 04:40 18,7 C 77 % 0,0 l/m 1,4 km/h (1 Bft) N-NO 22 14,6 C 18,6 C 1,8 km/h (1 Bft)
30.06.2012 04:45 18,6 C 77 % 0,0 l/m 1,1 km/h (1 Bft) N-NO 22 14,5 C 18,6 C 0,0 km/h (0 Bft)
30.06.2012 04:50 18,6 C 77 % 0,0 l/m 0,5 km/h (0 Bft) NO 45 14,5 C 18,2 C 0,0 km/h (0 Bft)
30.06.2012 04:55 18,6 C 77 % 0,0 l/m 0,6 km/h (0 Bft) N-NO 22 14,5 C 18,2 C 1,6 km/h (1 Bft)
30.06.2012 05:00 18,6 C 78 % 0,0 l/m 1,0 km/h (0 Bft) N 360 14,7 C 18,2 C 4,2 km/h (1 Bft)
30.06.2012 05:05 18,3 C 78 % 0,0 l/m 1,3 km/h (1 Bft) N-NW 337 14,4 C 18,2 C 1,8 km/h (1 Bft)
30.06.2012 05:10 18,0 C 78 % 0,0 l/m 1,1 km/h (1 Bft) N-NW 337 14,1 C 18,1 C 0,0 km/h (0 Bft)
30.06.2012 05:15 17,9 C 78 % 0,0 l/m 0,6 km/h (0 Bft) N-NO 22 14,0 C 18,0 C 1,9 km/h (1 Bft)
30.06.2012 05:20 17,7 C 78 % 0,0 l/m 0,3 km/h (0 Bft) O-SO 112 13,8 C 17,8 C 2,1 km/h (1 Bft)
30.06.2012 05:25 17,6 C 79 % 0,0 l/m 1,3 km/h (1 Bft) SO 135 13,9 C 17,7 C 5,3 km/h (1 Bft)
30.06.2012 05:30 18,1 C 79 % 0,0 l/m 1,6 km/h (1 Bft) NO 45 14,4 C 17,6 C 2,3 km/h (1 Bft)
30.06.2012 05:35 18,1 C 78 % 0,0 l/m 0,8 km/h (0 Bft) NO 45 14,2 C 17,7 C 2,4 km/h (1 Bft)
30.06.2012 05:40 17,8 C 79 % 0,0 l/m 0,8 km/h (0 Bft) S-SO 157 14,1 C 17,6 C 2,7 km/h (1 Bft)
30.06.2012 05:45 17,7 C 80 % 0,0 l/m 0,8 km/h (0 Bft) N-NO 22 14,2 C 17,6 C 0,0 km/h (0 Bft)
30.06.2012 05:50 17,4 C 80 % 0,0 l/m 0,8 km/h (0 Bft) N-NO 22 13,9 C 17,2 C 0,0 km/h (0 Bft)
30.06.2012 05:55 17,2 C 80 % 0,0 l/m 0,3 km/h (0 Bft) SO 135 13,7 C 17,1 C 0,0 km/h (0 Bft)
30.06.2012 06:00 16,9 C 80 % 0,0 l/m 0,2 km/h (0 Bft) NO 45 13,4 C 16,8 C 0,0 km/h (0 Bft)
30.06.2012 06:05 17,1 C 81 % 0,0 l/m 0,2 km/h (0 Bft) N-NO 22 13,8 C 16,7 C 1,6 km/h (1 Bft)
30.06.2012 06:10 17,1 C 81 % 0,0 l/m 0,5 km/h (0 Bft) N-NW 337 13,8 C 16,8 C 0,0 km/h (0 Bft)
30.06.2012 06:15 17,1 C 82 % 0,0 l/m 1,0 km/h (0 Bft) N-NO 22 14,0 C 16,7 C 0,0 km/h (0 Bft)
30.06.2012 06:20 17,1 C 81 % 0,0 l/m 1,3 km/h (1 Bft) NO 45 13,8 C 17,0 C 3,1 km/h (1 Bft)
30.06.2012 06:25 17,2 C 82 % 0,0 l/m 1,4 km/h (1 Bft) N-NO 22 14,1 C 16,9 C 2,7 km/h (1 Bft)
30.06.2012 06:30 18,1 C 81 % 0,0 l/m 1,3 km/h (1 Bft) NO 45 14,8 C 17,7 C 0,0 km/h (0 Bft)
30.06.2012 06:35 18,6 C 80 % 0,0 l/m 0,8 km/h (0 Bft) NO 45 15,1 C 18,3 C 1,6 km/h (1 Bft)
30.06.2012 06:40 19,0 C 79 % 0,0 l/m 0,6 km/h (0 Bft) N-NO 22 15,3 C 19,1 C 1,6 km/h (1 Bft)
30.06.2012 06:45 19,5 C 78 % 0,0 l/m 0,6 km/h (0 Bft) N-NO 22 15,6 C 19,3 C 0,0 km/h (0 Bft)
30.06.2012 06:50 20,1 C 76 % 0,0 l/m 0,5 km/h (0 Bft) N-NO 22 15,7 C 20,5 C 0,0 km/h (0 Bft)
30.06.2012 06:55 20,5 C 76 % 0,0 l/m 0,2 km/h (0 Bft) N 360 16,1 C 21,1 C 0,0 km/h (0 Bft)
30.06.2012 07:00 21,0 C 75 % 0,0 l/m 0,2 km/h (0 Bft) S-SW 202 16,4 C 21,9 C 1,8 km/h (1 Bft)
30.06.2012 07:05 21,4 C 74 % 0,0 l/m 0,2 km/h (0 Bft) W 270 16,6 C 22,1 C 0,0 km/h (0 Bft)
30.06.2012 07:10 22,4 C 73 % 0,0 l/m 0,2 km/h (0 Bft) N-NO 22 17,4 C 23,2 C 0,0 km/h (0 Bft)
30.06.2012 07:15 22,3 C 73 % 0,0 l/m 0,0 km/h (0 Bft) N-NO 22 17,2 C 23,6 C 0,0 km/h (0 Bft)
30.06.2012 07:20 22,4 C 73 % 0,0 l/m 0,0 km/h (0 Bft) N-NO 22 17,3 C 24,4 C 0,0 km/h (0 Bft)
30.06.2012 07:25 22,7 C 72 % 0,0 l/m 0,0 km/h (0 Bft) N 360 17,4 C 24,4 C 0,0 km/h (0 Bft)
30.06.2012 07:30 23,4 C 70 % 0,0 l/m 0,0 km/h (0 Bft) NO 45 17,6 C 25,0 C 0,0 km/h (0 Bft)
30.06.2012 07:35 24,0 C 68 % 0,0 l/m 0,0 km/h (0 Bft) O-SO 112 17,7 C 25,9 C 0,0 km/h (0 Bft)
30.06.2012 07:40 24,6 C 67 % 0,0 l/m 0,0 km/h (0 Bft) S 180 18,1 C 26,8 C 0,0 km/h (0 Bft)
30.06.2012 07:45 25,1 C 66 % 0,0 l/m 0,0 km/h (0 Bft) S 180 18,3 C 27,1 C 0,0 km/h (0 Bft)
30.06.2012 07:50 24,7 C 65 % 0,0 l/m 1,6 km/h (1 Bft) W-SW 247 17,7 C 26,9 C 3,9 km/h (1 Bft)
30.06.2012 07:55 25,8 C 64 % 0,0 l/m 2,3 km/h (1 Bft) SO 135 18,5 C 26,6 C 1,8 km/h (1 Bft)
30.06.2012 08:00 25,6 C 58 % 0,0 l/m 1,6 km/h (1 Bft) NW 315 16,7 C 27,2 C 0,0 km/h (0 Bft)
30.06.2012 08:05 25,7 C 60 % 0,0 l/m 1,1 km/h (1 Bft) N 360 17,3 C 27,3 C 1,9 km/h (1 Bft)
30.06.2012 08:10 26,5 C 60 % 0,0 l/m 0,6 km/h (0 Bft) W-SW 247 18,1 C 28,0 C 0,0 km/h (0 Bft)
30.06.2012 08:15 26,8 C 58 % 0,0 l/m 0,2 km/h (0 Bft) SW 225 17,8 C 28,4 C 0,0 km/h (0 Bft)
30.06.2012 08:20 27,8 C 58 % 0,0 l/m 0,0 km/h (0 Bft) SO 135 18,8 C 29,4 C 0,0 km/h (0 Bft)
30.06.2012 08:25 27,9 C 57 % 0,0 l/m 0,0 km/h (0 Bft) W-NW 292 18,6 C 29,8 C 0,0 km/h (0 Bft)
30.06.2012 08:30 28,3 C 55 % 0,0 l/m 0,2 km/h (0 Bft) W-SW 247 18,4 C 30,4 C 0,0 km/h (0 Bft)
30.06.2012 08:35 28,3 C 55 % 0,0 l/m 0,5 km/h (0 Bft) W-SW 247 18,7 C 30,6 C 2,7 km/h (1 Bft)
30.06.2012 08:40 28,0 C 55 % 0,0 l/m 1,3 km/h (1 Bft) S-SW 202 18,5 C 30,3 C 0,0 km/h (0 Bft)
30.06.2012 08:45 27,7 C 52 % 0,0 l/m 1,3 km/h (1 Bft) S-SW 202 17,8 C 30,4 C 0,0 km/h (0 Bft)
30.06.2012 08:50 27,5 C 52 % 0,0 l/m 1,6 km/h (1 Bft) NO 45 17,5 C 30,6 C 4,7 km/h (1 Bft)
30.06.2012 08:55 27,2 C 50 % 0,0 l/m 2,4 km/h (1 Bft) NO 45 16,3 C 30,0 C 2,1 km/h (1 Bft)
30.06.2012 09:00 27,1 C 50 % 0,0 l/m 3,2 km/h (1 Bft) W-SW 247 16,7 C 29,6 C 8,0 km/h (2 Bft)
30.06.2012 09:05 27,1 C 49 % 0,0 l/m 3,2 km/h (1 Bft) N-NW 337 16,5 C 29,5 C 4,5 km/h (1 Bft)
30.06.2012 09:10 27,1 C 50 % 0,0 l/m 4,0 km/h (1 Bft) W 270 17,0 C 29,3 C 7,1 km/h (2 Bft)
30.06.2012 09:15 26,8 C 50 % 0,0 l/m 4,2 km/h (1 Bft) W-NW 292 16,6 C 28,9 C 5,5 km/h (1 Bft)
30.06.2012 09:20 26,9 C 50 % 0,0 l/m 4,2 km/h (1 Bft) S 180 16,6 C 29,2 C 11,7 km/h (2 Bft)
30.06.2012 09:25 26,9 C 50 % 0,0 l/m 5,3 km/h (1 Bft) W 270 16,5 C 28,7 C 7,9 km/h (2 Bft)
30.06.2012 09:30 26,9 C 51 % 0,0 l/m 6,4 km/h (2 Bft) W-NW 292 16,7 C 28,4 C 13,8 km/h (3 Bft)
30.06.2012 09:35 26,8 C 52 % 0,0 l/m 5,6 km/h (1 Bft) W-NW 292 16,8 C 28,3 C 6,9 km/h (2 Bft)
30.06.2012 09:40 27,0 C 52 % 0,0 l/m 5,5 km/h (1 Bft) W-NW 292 17,2 C 28,6 C 8,4 km/h (2 Bft)
30.06.2012 09:45 26,9 C 53 % 0,0 l/m 4,8 km/h (1 Bft) NO 45 17,2 C 28,5 C 2,9 km/h (1 Bft)
30.06.2012 09:50 26,9 C 53 % 0,0 l/m 5,5 km/h (1 Bft) W-NW 292 17,3 C 28,7 C 13,7 km/h (3 Bft)
30.06.2012 09:55 26,8 C 52 % 0,0 l/m 5,6 km/h (1 Bft) W 270 17,3 C 28,5 C 7,1 km/h (2 Bft)
30.06.2012 10:00 27,3 C 53 % 0,0 l/m 4,5 km/h (1 Bft) N 360 18,2 C 29,0 C 2,7 km/h (1 Bft)
30.06.2012 10:05 27,4 C 52 % 0,0 l/m 4,2 km/h (1 Bft) S-SW 202 17,8 C 29,4 C 4,5 km/h (1 Bft)
30.06.2012 10:10 27,7 C 53 % 0,0 l/m 5,6 km/h (1 Bft) W-SW 247 17,8 C 29,2 C 9,8 km/h (2 Bft)
30.06.2012 10:15 27,5 C 53 % 0,0 l/m 6,0 km/h (2 Bft) W-SW 247 17,5 C 29,2 C 3,7 km/h (1 Bft)
30.06.2012 10:20 27,5 C 53 % 0,0 l/m 6,3 km/h (2 Bft) W-NW 292 17,7 C 29,0 C 7,4 km/h (2 Bft)
30.06.2012 10:25 27,5 C 54 % 0,0 l/m 6,3 km/h (2 Bft) NW 315 17,5 C 29,0 C 11,7 km/h (2 Bft)
30.06.2012 10:30 27,8 C 56 % 0,0 l/m 6,1 km/h (2 Bft) NW 315 18,8 C 29,0 C 11,3 km/h (2 Bft)
30.06.2012 10:35 28,0 C 50 % 0,0 l/m 6,0 km/h (2 Bft) O-NO 67 17,0 C 29,2 C 6,4 km/h (2 Bft)
30.06.2012 10:40 27,9 C 51 % 0,0 l/m 6,1 km/h (2 Bft) SW 225 17,2 C 29,3 C 16,7 km/h (3 Bft)
30.06.2012 10:45 28,2 C 51 % 0,0 l/m 5,6 km/h (1 Bft) W-SW 247 17,4 C 29,4 C 6,6 km/h (2 Bft)
30.06.2012 10:50 28,0 C 51 % 0,0 l/m 5,5 km/h (1 Bft) W-NW 292 16,9 C 29,4 C 5,1 km/h (1 Bft)
30.06.2012 10:55 28,4 C 53 % 0,0 l/m 5,6 km/h (1 Bft) W-SW 247 17,9 C 29,6 C 5,3 km/h (1 Bft)
30.06.2012 11:00 28,4 C 51 % 0,0 l/m 5,8 km/h (2 Bft) W-SW 247 17,4 C 29,5 C 6,8 km/h (2 Bft)
30.06.2012 11:05 28,3 C 50 % 0,0 l/m 6,4 km/h (2 Bft) W-NW 292 16,9 C 29,7 C 10,9 km/h (2 Bft)
30.06.2012 11:10 28,4 C 50 % 0,0 l/m 6,9 km/h (2 Bft) W-SW 247 17,0 C 29,2 C 4,0 km/h (1 Bft)
30.06.2012 11:15 28,0 C 52 % 0,0 l/m 7,4 km/h (2 Bft) W 270 17,2 C 29,3 C 11,1 km/h (2 Bft)
30.06.2012 11:20 28,0 C 52 % 0,0 l/m 7,7 km/h (2 Bft) W-NW 292 17,2 C 29,1 C 10,1 km/h (2 Bft)
30.06.2012 11:25 28,0 C 52 % 0,0 l/m 7,4 km/h (2 Bft) W-NW 292 17,2 C 29,2 C 4,5 km/h (1 Bft)
30.06.2012 11:30 28,3 C 52 % 0,0 l/m 6,6 km/h (2 Bft) W-NW 292 17,5 C 29,7 C 4,7 km/h (1 Bft)
30.06.2012 11:35 28,8 C 50 % 0,0 l/m 5,5 km/h (1 Bft) NW 315 17,3 C 30,0 C 6,6 km/h (2 Bft)
30.06.2012 11:40 29,3 C 53 % 0,0 l/m 5,5 km/h (1 Bft) N-NW 337 18,7 C 30,3 C 8,4 km/h (2 Bft)
30.06.2012 11:45 29,2 C 51 % 0,0 l/m 5,6 km/h (1 Bft) W 270 18,0 C 30,4 C 10,5 km/h (2 Bft)
30.06.2012 11:50 28,9 C 53 % 0,0 l/m 5,0 km/h (1 Bft) S-SW 202 18,3 C 30,7 C 6,1 km/h (2 Bft)
30.06.2012 11:55 28,8 C 54 % 0,0 l/m 5,3 km/h (1 Bft) S-SW 202 18,5 C 30,7 C 7,2 km/h (2 Bft)
30.06.2012 12:00 29,3 C 51 % 0,0 l/m 5,6 km/h (1 Bft) W-NW 292 18,1 C 30,8 C 12,2 km/h (2 Bft)
30.06.2012 12:05 29,4 C 51 % 0,0 l/m 5,5 km/h (1 Bft) W-NW 292 18,2 C 30,8 C 2,7 km/h (1 Bft)
30.06.2012 12:10 29,7 C 50 % 0,0 l/m 6,3 km/h (2 Bft) N 360 18,1 C 30,8 C 6,8 km/h (2 Bft)
30.06.2012 12:15 29,3 C 52 % 0,0 l/m 5,8 km/h (2 Bft) S-SW 202 18,4 C 30,9 C 3,4 km/h (1 Bft)
30.06.2012 12:20 30,0 C 50 % 0,0 l/m 6,0 km/h (2 Bft) W-NW 292 18,4 C 30,8 C 14,0 km/h (3 Bft)
30.06.2012 12:25 29,5 C 50 % 0,0 l/m 6,6 km/h (2 Bft) N-NW 337 18,0 C 30,7 C 8,7 km/h (2 Bft)
30.06.2012 12:30 29,3 C 51 % 0,0 l/m 6,8 km/h (2 Bft) W-SW 247 18,1 C 30,8 C 19,5 km/h (3 Bft)
30.06.2012 12:35 29,5 C 50 % 0,0 l/m 7,1 km/h (2 Bft) O-SO 112 18,0 C 30,6 C 13,5 km/h (3 Bft)
30.06.2012 12:40 29,2 C 50 % 0,0 l/m 8,2 km/h (2 Bft) W 270 17,7 C 30,3 C 7,4 km/h (2 Bft)
30.06.2012 12:45 29,4 C 50 % 0,0 l/m 7,9 km/h (2 Bft) W-SW 247 17,9 C 30,3 C 9,0 km/h (2 Bft)
30.06.2012 12:50 29,3 C 50 % 0,0 l/m 7,1 km/h (2 Bft) N-NW 337 17,8 C 30,4 C 5,1 km/h (1 Bft)
30.06.2012 12:55 29,5 C 52 % 0,0 l/m 6,9 km/h (2 Bft) N-NO 22 18,6 C 30,7 C 6,8 km/h (2 Bft)
30.06.2012 13:00 29,7 C 50 % 0,0 l/m 7,2 km/h (2 Bft) W-SW 247 18,1 C 30,6 C 5,0 km/h (1 Bft)
30.06.2012 13:05 29,9 C 50 % 0,0 l/m 6,8 km/h (2 Bft) W-NW 292 18,3 C 30,8 C 3,4 km/h (1 Bft)
30.06.2012 13:10 29,5 C 52 % 0,0 l/m 6,3 km/h (2 Bft) W-NW 292 18,6 C 31,0 C 8,9 km/h (2 Bft)
30.06.2012 13:15 29,6 C 52 % 0,0 l/m 6,3 km/h (2 Bft) S 180 18,7 C 31,1 C 8,4 km/h (2 Bft)
30.06.2012 13:20 29,4 C 52 % 0,0 l/m 7,1 km/h (2 Bft) W-SW 247 18,5 C 30,9 C 6,4 km/h (2 Bft)
30.06.2012 13:25 30,1 C 50 % 0,0 l/m 7,6 km/h (2 Bft) W-SW 247 18,5 C 30,9 C 8,5 km/h (2 Bft)
30.06.2012 13:30 29,7 C 52 % 0,0 l/m 6,9 km/h (2 Bft) S-SW 202 18,8 C 30,8 C 6,1 km/h (2 Bft)
30.06.2012 13:35 30,1 C 52 % 0,0 l/m 7,2 km/h (2 Bft) NW 315 19,1 C 30,9 C 11,9 km/h (2 Bft)
30.06.2012 13:40 29,8 C 49 % 0,0 l/m 7,6 km/h (2 Bft) W 270 17,9 C 30,6 C 9,7 km/h (2 Bft)
30.06.2012 13:45 29,7 C 49 % 0,0 l/m 7,6 km/h (2 Bft) W 270 17,8 C 30,7 C 7,9 km/h (2 Bft)
30.06.2012 13:50 29,8 C 49 % 0,0 l/m 6,8 km/h (2 Bft) O 90 17,9 C 31,0 C 2,4 km/h (1 Bft)
30.06.2012 13:55 30,3 C 49 % 0,0 l/m 6,9 km/h (2 Bft) W-SW 247 18,4 C 31,4 C 10,0 km/h (2 Bft)
30.06.2012 14:00 30,3 C 48 % 0,0 l/m 6,3 km/h (2 Bft) N-NO 22 18,0 C 31,6 C 10,8 km/h (2 Bft)
30.06.2012 14:05 30,2 C 48 % 0,0 l/m 7,1 km/h (2 Bft) W-SW 247 17,9 C 31,6 C 10,1 km/h (2 Bft)
30.06.2012 14:10 29,9 C 49 % 0,0 l/m 6,8 km/h (2 Bft) W-NW 292 18,0 C 31,6 C 8,0 km/h (2 Bft)
30.06.2012 14:15 30,0 C 48 % 0,0 l/m 5,8 km/h (2 Bft) W-SW 247 17,8 C 31,8 C 4,8 km/h (1 Bft)
30.06.2012 14:20 30,2 C 48 % 0,0 l/m 5,3 km/h (1 Bft) W-NW 292 17,9 C 32,0 C 7,4 km/h (2 Bft)
30.06.2012 14:25 30,2 C 48 % 0,0 l/m 5,8 km/h (2 Bft) W-NW 292 17,9 C 32,0 C 7,4 km/h (2 Bft)
30.06.2012 14:30 30,6 C 48 % 0,0 l/m 6,1 km/h (2 Bft) W-NW 292 18,3 C 32,2 C 11,6 km/h (2 Bft)
30.06.2012 14:35 30,6 C 49 % 0,0 l/m 5,0 km/h (1 Bft) W 270 18,6 C 32,4 C 2,7 km/h (1 Bft)
30.06.2012 14:40 30,9 C 47 % 0,0 l/m 5,0 km/h (1 Bft) W 270 18,2 C 32,8 C 8,7 km/h (2 Bft)
30.06.2012 14:45 30,6 C 47 % 0,0 l/m 4,3 km/h (1 Bft) W-NW 292 18,0 C 33,0 C 5,3 km/h (1 Bft)
30.06.2012 14:50 30,9 C 47 % 0,0 l/m 5,6 km/h (1 Bft) NW 315 18,2 C 33,0 C 11,4 km/h (2 Bft)
30.06.2012 14:55 30,7 C 48 % 0,0 l/m 6,3 km/h (2 Bft) N-NW 337 18,4 C 32,8 C 7,2 km/h (2 Bft)
30.06.2012 15:00 31,0 C 47 % 0,0 l/m 5,6 km/h (1 Bft) W 270 18,3 C 32,8 C 6,6 km/h (2 Bft)
30.06.2012 15:05 30,8 C 47 % 0,0 l/m 5,1 km/h (1 Bft) W 270 18,2 C 33,0 C 8,0 km/h (2 Bft)
30.06.2012 15:10 31,1 C 45 % 0,0 l/m 5,1 km/h (1 Bft) N-NW 337 17,7 C 32,8 C 6,6 km/h (2 Bft)
30.06.2012 15:15 30,9 C 46 % 0,0 l/m 5,3 km/h (1 Bft) W-SW 247 17,9 C 33,1 C 9,5 km/h (2 Bft)
30.06.2012 15:20 31,1 C 45 % 0,0 l/m 6,1 km/h (2 Bft) W-NW 292 17,7 C 32,9 C 11,1 km/h (2 Bft)
30.06.2012 15:25 31,1 C 46 % 0,0 l/m 7,1 km/h (2 Bft) W-NW 292 18,1 C 32,7 C 4,8 km/h (1 Bft)
30.06.2012 15:30 31,1 C 46 % 0,0 l/m 6,1 km/h (2 Bft) NW 315 18,1 C 32,8 C 4,2 km/h (1 Bft)
30.06.2012 15:35 31,0 C 47 % 0,0 l/m 5,3 km/h (1 Bft) W-NW 292 18,3 C 33,1 C 5,1 km/h (1 Bft)
30.06.2012 15:40 31,4 C 46 % 0,0 l/m 5,8 km/h (2 Bft) W-SW 247 18,4 C 33,2 C 10,3 km/h (2 Bft)
30.06.2012 15:45 31,4 C 46 % 0,0 l/m 6,0 km/h (2 Bft) W-SW 247 18,4 C 33,1 C 6,6 km/h (2 Bft)
30.06.2012 15:50 31,2 C 47 % 0,0 l/m 5,8 km/h (2 Bft) W-SW 247 18,5 C 33,1 C 8,7 km/h (2 Bft)
30.06.2012 15:55 31,3 C 47 % 0,0 l/m 5,1 km/h (1 Bft) W-NW 292 18,6 C 33,3 C 5,3 km/h (1 Bft)
30.06.2012 16:00 31,2 C 45 % 0,0 l/m 5,8 km/h (2 Bft) W-SW 247 17,8 C 33,3 C 10,6 km/h (2 Bft)
30.06.2012 16:05 31,1 C 46 % 0,0 l/m 6,1 km/h (2 Bft) N-NW 337 18,1 C 33,1 C 5,1 km/h (1 Bft)
30.06.2012 16:10 31,1 C 45 % 0,0 l/m 6,8 km/h (2 Bft) W 270 17,7 C 33,1 C 6,1 km/h (2 Bft)
30.06.2012 16:15 31,1 C 47 % 0,0 l/m 6,1 km/h (2 Bft) W 270 18,4 C 33,1 C 6,6 km/h (2 Bft)
30.06.2012 16:20 31,3 C 47 % 0,0 l/m 5,1 km/h (1 Bft) W-SW 247 18,6 C 33,3 C 6,4 km/h (2 Bft)
30.06.2012 16:25 31,1 C 46 % 0,0 l/m 5,6 km/h (1 Bft) W-NW 292 18,1 C 33,3 C 13,4 km/h (3 Bft)
30.06.2012 16:30 30,8 C 47 % 0,0 l/m 5,1 km/h (1 Bft) W 270 18,2 C 33,5 C 7,4 km/h (2 Bft)
30.06.2012 16:35 30,9 C 48 % 0,0 l/m 4,7 km/h (1 Bft) W-NW 292 18,6 C 33,8 C 9,3 km/h (2 Bft)
30.06.2012 16:40 31,0 C 48 % 0,0 l/m 4,7 km/h (1 Bft) W-NW 292 18,7 C 33,8 C 3,2 km/h (1 Bft)
30.06.2012 16:45 31,0 C 49 % 0,0 l/m 4,0 km/h (1 Bft) W-NW 292 19,0 C 34,2 C 3,7 km/h (1 Bft)
30.06.2012 16:50 30,5 C 47 % 0,0 l/m 4,2 km/h (1 Bft) W 270 17,9 C 34,2 C 3,9 km/h (1 Bft)
30.06.2012 16:55 30,4 C 47 % 0,0 l/m 5,1 km/h (1 Bft) W-SW 247 17,8 C 34,0 C 6,8 km/h (2 Bft)
30.06.2012 17:00 30,2 C 48 % 0,0 l/m 5,5 km/h (1 Bft) W 270 17,9 C 33,8 C 6,4 km/h (2 Bft)
30.06.2012 17:05 30,1 C 48 % 0,0 l/m 5,3 km/h (1 Bft) NW 315 17,9 C 33,8 C 9,7 km/h (2 Bft)
30.06.2012 17:10 30,0 C 50 % 0,0 l/m 5,1 km/h (1 Bft) W-NW 292 18,4 C 33,6 C 8,0 km/h (2 Bft)
30.06.2012 17:15 29,9 C 49 % 0,0 l/m 5,3 km/h (1 Bft) W 270 18,0 C 33,7 C 9,2 km/h (2 Bft)
30.06.2012 17:20 29,7 C 49 % 0,0 l/m 5,6 km/h (1 Bft) W-NW 292 17,8 C 33,5 C 8,7 km/h (2 Bft)
30.06.2012 17:25 29,7 C 48 % 0,0 l/m 5,3 km/h (1 Bft) W-NW 292 17,5 C 33,3 C 3,9 km/h (1 Bft)
30.06.2012 17:30 29,5 C 48 % 0,0 l/m 4,8 km/h (1 Bft) W-NW 292 17,3 C 33,6 C 7,9 km/h (2 Bft)
30.06.2012 17:35 29,5 C 48 % 0,0 l/m 4,5 km/h (1 Bft) W 270 17,3 C 33,6 C 5,1 km/h (1 Bft)
30.06.2012 17:40 29,6 C 49 % 0,0 l/m 4,5 km/h (1 Bft) W 270 17,7 C 33,6 C 9,2 km/h (2 Bft)
30.06.2012 17:45 29,6 C 50 % 0,0 l/m 4,2 km/h (1 Bft) W 270 18,1 C 33,8 C 5,3 km/h (1 Bft)
30.06.2012 17:50 29,6 C 49 % 0,0 l/m 4,3 km/h (1 Bft) W 270 17,7 C 33,8 C 5,5 km/h (1 Bft)
30.06.2012 17:55 29,5 C 51 % 0,0 l/m 3,5 km/h (1 Bft) SW 225 18,3 C 34,1 C 3,9 km/h (1 Bft)
30.06.2012 18:00 29,7 C 49 % 0,0 l/m 3,7 km/h (1 Bft) W-SW 247 17,8 C 34,2 C 8,5 km/h (2 Bft)
30.06.2012 18:05 29,5 C 48 % 0,0 l/m 4,3 km/h (1 Bft) N-NW 337 17,3 C 34,1 C 4,3 km/h (1 Bft)
30.06.2012 18:10 29,5 C 48 % 0,0 l/m 4,2 km/h (1 Bft) W 270 17,3 C 33,9 C 7,6 km/h (2 Bft)
30.06.2012 18:15 29,6 C 48 % 0,0 l/m 4,2 km/h (1 Bft) W 270 17,4 C 33,8 C 8,0 km/h (2 Bft)
30.06.2012 18:20 29,5 C 49 % 0,0 l/m 3,5 km/h (1 Bft) W-NW 292 17,6 C 33,8 C 2,1 km/h (1 Bft)
30.06.2012 18:25 29,5 C 49 % 0,0 l/m 3,2 km/h (1 Bft) N-NW 337 17,6 C 33,8 C 2,9 km/h (1 Bft)
30.06.2012 18:30 29,4 C 49 % 0,0 l/m 2,4 km/h (1 Bft) NW 315 17,5 C 34,1 C 4,7 km/h (1 Bft)
30.06.2012 18:35 29,4 C 50 % 0,0 l/m 3,1 km/h (1 Bft) NW 315 17,9 C 33,8 C 4,8 km/h (1 Bft)
30.06.2012 18:40 29,3 C 50 % 0,0 l/m 4,0 km/h (1 Bft) W-NW 292 17,8 C 33,6 C 5,1 km/h (1 Bft)
30.06.2012 18:45 29,3 C 51 % 0,0 l/m 3,5 km/h (1 Bft) W 270 18,1 C 33,3 C 3,4 km/h (1 Bft)
30.06.2012 18:50 29,2 C 51 % 0,0 l/m 2,7 km/h (1 Bft) NO 45 18,0 C 33,3 C 2,3 km/h (1 Bft)
30.06.2012 18:55 29,0 C 53 % 0,0 l/m 2,1 km/h (1 Bft) W-SW 247 18,4 C 33,4 C 2,7 km/h (1 Bft)
30.06.2012 19:00 28,7 C 55 % 0,0 l/m 2,9 km/h (1 Bft) N-NW 337 18,7 C 33,1 C 4,8 km/h (1 Bft)
30.06.2012 19:05 28,6 C 57 % 0,0 l/m 4,0 km/h (1 Bft) W-NW 292 19,2 C 32,8 C 7,4 km/h (2 Bft)
30.06.2012 19:10 28,5 C 55 % 0,0 l/m 3,4 km/h (1 Bft) W-SW 247 18,6 C 32,4 C 5,6 km/h (1 Bft)
30.06.2012 19:15 28,5 C 53 % 0,0 l/m 3,1 km/h (1 Bft) W-NW 292 18,0 C 32,4 C 4,2 km/h (1 Bft)
30.06.2012 19:20 28,3 C 54 % 0,0 l/m 2,9 km/h (1 Bft) W-SW 247 18,1 C 32,2 C 3,2 km/h (1 Bft)
30.06.2012 19:25 28,1 C 54 % 0,0 l/m 3,2 km/h (1 Bft) N-NW 337 17,9 C 31,9 C 7,7 km/h (2 Bft)
30.06.2012 19:30 28,1 C 55 % 0,0 l/m 2,6 km/h (1 Bft) W-NW 292 18,2 C 31,7 C 2,1 km/h (1 Bft)
30.06.2012 19:35 27,9 C 56 % 0,0 l/m 1,8 km/h (1 Bft) N-NO 22 18,3 C 31,7 C 2,4 km/h (1 Bft)
30.06.2012 19:40 27,6 C 57 % 0,0 l/m 1,9 km/h (1 Bft) N 360 18,3 C 31,5 C 2,4 km/h (1 Bft)
30.06.2012 19:45 27,5 C 57 % 0,0 l/m 1,8 km/h (1 Bft) N 360 18,2 C 31,3 C 0,0 km/h (0 Bft)
30.06.2012 19:50 27,4 C 59 % 0,0 l/m 1,8 km/h (1 Bft) N 360 18,7 C 30,9 C 2,3 km/h (1 Bft)
30.06.2012 19:55 27,2 C 58 % 0,0 l/m 1,9 km/h (1 Bft) N-NW 337 18,2 C 30,7 C 0,0 km/h (0 Bft)
30.06.2012 20:00 27,1 C 58 % 0,0 l/m 2,7 km/h (1 Bft) O 90 18,1 C 30,3 C 2,7 km/h (1 Bft)
30.06.2012 20:05 27,0 C 58 % 0,0 l/m 3,4 km/h (1 Bft) N-NW 337 18,0 C 29,9 C 4,3 km/h (1 Bft)
30.06.2012 20:10 26,8 C 60 % 0,0 l/m 2,3 km/h (1 Bft) N 360 18,4 C 29,5 C 2,3 km/h (1 Bft)
30.06.2012 20:15 26,7 C 60 % 0,0 l/m 2,1 km/h (1 Bft) N 360 18,3 C 29,3 C 1,8 km/h (1 Bft)
30.06.2012 20:20 26,4 C 60 % 0,0 l/m 1,4 km/h (1 Bft) N 360 18,0 C 28,8 C 0,0 km/h (0 Bft)
30.06.2012 20:25 26,0 C 61 % 0,0 l/m 1,0 km/h (0 Bft) NO 45 17,9 C 28,2 C 1,6 km/h (1 Bft)
30.06.2012 20:30 25,6 C 64 % 0,0 l/m 1,6 km/h (1 Bft) N-NO 22 18,3 C 27,1 C 5,3 km/h (1 Bft)
30.06.2012 20:35 25,5 C 64 % 0,0 l/m 1,9 km/h (1 Bft) N 360 18,2 C 26,6 C 2,4 km/h (1 Bft)
30.06.2012 20:40 25,2 C 65 % 0,0 l/m 2,4 km/h (1 Bft) N 360 18,1 C 25,9 C 0,0 km/h (0 Bft)
30.06.2012 20:45 24,9 C 66 % 0,0 l/m 1,9 km/h (1 Bft) N-NO 22 18,1 C 25,6 C 2,4 km/h (1 Bft)
30.06.2012 20:50 24,6 C 67 % 0,0 l/m 1,1 km/h (1 Bft) N 360 18,1 C 25,1 C 4,2 km/h (1 Bft)
30.06.2012 20:55 24,5 C 68 % 0,0 l/m 1,3 km/h (1 Bft) N 360 18,2 C 24,8 C 2,3 km/h (1 Bft)
30.06.2012 21:00 24,3 C 68 % 0,0 l/m 1,0 km/h (0 Bft) NO 45 18,0 C 24,3 C 0,0 km/h (0 Bft)
30.06.2012 21:05 24,1 C 69 % 0,0 l/m 0,5 km/h (0 Bft) NW 315 18,0 C 23,9 C 0,0 km/h (0 Bft)
30.06.2012 21:10 23,6 C 71 % 0,0 l/m 0,2 km/h (0 Bft) N-NO 22 18,0 C 23,6 C 1,6 km/h (1 Bft)
30.06.2012 21:15 23,4 C 72 % 0,0 l/m 0,2 km/h (0 Bft) NO 45 18,1 C 23,3 C 2,1 km/h (1 Bft)
30.06.2012 21:20 23,3 C 72 % 0,0 l/m 0,8 km/h (0 Bft) NO 45 18,0 C 23,2 C 2,1 km/h (1 Bft)
30.06.2012 21:25 23,0 C 74 % 0,0 l/m 1,4 km/h (1 Bft) NO 45 18,1 C 23,2 C 1,9 km/h (1 Bft)
30.06.2012 21:30 22,6 C 76 % 0,0 l/m 1,3 km/h (1 Bft) NO 45 18,1 C 22,8 C 3,7 km/h (1 Bft)
30.06.2012 21:35 22,3 C 77 % 0,0 l/m 1,3 km/h (1 Bft) NO 45 18,1 C 22,5 C 0,0 km/h (0 Bft)
30.06.2012 21:40 22,3 C 77 % 0,0 l/m 1,0 km/h (0 Bft) N-NO 22 18,1 C 22,2 C 0,0 km/h (0 Bft)
30.06.2012 21:45 22,1 C 77 % 0,0 l/m 0,2 km/h (0 Bft) N-NO 22 17,9 C 22,1 C 0,0 km/h (0 Bft)
30.06.2012 21:50 21,9 C 76 % 0,0 l/m 0,8 km/h (0 Bft) O-SO 112 17,5 C 21,9 C 1,6 km/h (1 Bft)
30.06.2012 21:55 21,8 C 76 % 0,0 l/m 0,8 km/h (0 Bft) NO 45 17,4 C 21,9 C 0,0 km/h (0 Bft)
30.06.2012 22:00 21,4 C 76 % 0,0 l/m 0,3 km/h (0 Bft) O-SO 112 17,0 C 21,6 C 0,0 km/h (0 Bft)
30.06.2012 22:05 21,3 C 76 % 0,0 l/m 2,1 km/h (1 Bft) S-SO 157 16,9 C 21,5 C 14,2 km/h (3 Bft)
30.06.2012 22:10 21,8 C 73 % 0,0 l/m 5,3 km/h (1 Bft) SO 135 16,7 C 22,0 C 10,3 km/h (2 Bft)
30.06.2012 22:15 22,5 C 74 % 0,0 l/m 7,9 km/h (2 Bft) SO 135 17,6 C 22,2 C 16,3 km/h (3 Bft)
30.06.2012 22:20 22,8 C 74 % 0,0 l/m 6,6 km/h (2 Bft) S 180 17,9 C 23,1 C 0,0 km/h (0 Bft)
30.06.2012 22:25 22,6 C 74 % 0,0 l/m 4,8 km/h (1 Bft) S 180 17,7 C 23,2 C 2,1 km/h (1 Bft)
30.06.2012 22:30 22,3 C 76 % 0,0 l/m 4,7 km/h (1 Bft) S-SO 157 17,9 C 23,1 C 9,3 km/h (2 Bft)
30.06.2012 22:35 22,5 C 74 % 0,0 l/m 6,9 km/h (2 Bft) O-NO 67 17,6 C 22,9 C 13,7 km/h (3 Bft)
30.06.2012 22:40 22,1 C 73 % 0,0 l/m 7,6 km/h (2 Bft) O-SO 112 17,0 C 22,6 C 5,5 km/h (1 Bft)
30.06.2012 22:45 22,0 C 74 % 0,0 l/m 5,3 km/h (1 Bft) S 180 17,1 C 22,8 C 4,0 km/h (1 Bft)
30.06.2012 22:50 21,6 C 75 % 0,0 l/m 3,1 km/h (1 Bft) NO 45 17,0 C 22,4 C 0,0 km/h (0 Bft)
30.06.2012 22:55 21,9 C 75 % 0,0 l/m 1,8 km/h (1 Bft) N-NO 22 17,3 C 22,2 C 0,0 km/h (0 Bft)
30.06.2012 23:00 21,5 C 76 % 0,0 l/m 1,0 km/h (0 Bft) S-SO 157 17,1 C 21,8 C 0,0 km/h (0 Bft)
30.06.2012 23:05 21,0 C 76 % 0,0 l/m 1,1 km/h (1 Bft) S-SO 157 16,6 C 21,4 C 0,0 km/h (0 Bft)
30.06.2012 23:10 21,1 C 76 % 0,0 l/m 0,3 km/h (0 Bft) N 360 16,7 C 21,1 C 0,0 km/h (0 Bft)
30.06.2012 23:15 20,8 C 76 % 0,0 l/m 0,2 km/h (0 Bft) N 360 16,4 C 20,9 C 1,9 km/h (1 Bft)
30.06.2012 23:20 20,8 C 77 % 0,0 l/m 0,3 km/h (0 Bft) NO 45 16,6 C 20,6 C 0,0 km/h (0 Bft)
30.06.2012 23:25 20,6 C 77 % 0,0 l/m 0,5 km/h (0 Bft) N-NW 337 16,4 C 20,4 C 2,4 km/h (1 Bft)
30.06.2012 23:30 20,7 C 76 % 0,0 l/m 0,8 km/h (0 Bft) N-NO 22 16,3 C 20,2 C 2,1 km/h (1 Bft)
30.06.2012 23:35 20,2 C 75 % 0,0 l/m 0,8 km/h (0 Bft) N-NO 22 15,6 C 20,2 C 0,0 km/h (0 Bft)
30.06.2012 23:40 20,4 C 73 % 0,0 l/m 1,0 km/h (0 Bft) N-NO 22 15,4 C 20,0 C 0,0 km/h (0 Bft)
30.06.2012 23:45 20,3 C 73 % 0,0 l/m 1,0 km/h (0 Bft) NO 45 15,3 C 20,0 C 0,0 km/h (0 Bft)
30.06.2012 23:50 19,6 C 73 % 0,0 l/m 0,2 km/h (0 Bft) N-NW 337 14,6 C 19,7 C 0,0 km/h (0 Bft)
30.06.2012 23:55 19,6 C 74 % 0,0 l/m 0,8 km/h (0 Bft) S-SO 157 14,8 C 19,4 C 0,0 km/h (0 Bft)
_ Min-Zeit 06:00 16:10 - 08:25 - - 06:00 03:20 23:55
Minimum _ 16,9 C 45 % - 0,0 km/h (0 Bft) - - 13,4 C 16,6 C 0,0 km/h (0 Bft)
_ Max-Zeit 15:45 00:20 23:55 12:40 - - 19:05 18:00 12:30
Maximum _ 31,4 C 83 % 0,0 l/m 8,2 km/h
W (2 Bft)
- - 19,2 C 34,2 C 19,5 km/h
W-SW (3 Bft)
Durchschnitt _ 24,6 C 63 % #0,0 l/m 3,0 km/h (1 Bft) W-NW - 16,8 C 25,9 C 4,1 km/h (1 Bft)